This is the latest recevied weather packets stored in our database for station/object RV1CJ-14. If no packets are shown the sender has not sent any weather packets the latest 10 day(s).
| Time | Temp. | Humidity | Pressure | Rain* | Wind** | Luminosity | Snow |
|---|---|---|---|---|---|---|---|
| 1777609803 | 6.67° C | 92% | 1017.2 hPa | 0 mm | - | 113 W/m² | - |
| 1777609203 | 6.11° C | 93% | 1017.3 hPa | 0 mm | - | 253 W/m² | - |
| 1777608603 | 5.56° C | 93% | 1017.2 hPa | 0 mm | - | 171 W/m² | - |
| 1777608003 | 5.56° C | 93% | 1017.3 hPa | 0 mm | - | 63 W/m² | - |
| 1777607404 | 5° C | 93% | 1017.2 hPa | 0 mm | - | 174 W/m² | - |
| 1777606803 | 5° C | 93% | 1017.3 hPa | 0 mm | - | 74 W/m² | - |
| 1777606203 | 5° C | 93% | 1017.2 hPa | 0 mm | - | 40 W/m² | - |
| 1777605603 | 5° C | 93% | 1017.2 hPa | 0 mm | - | 39 W/m² | - |
| 1777605003 | 4.44° C | 93% | 1017.2 hPa | 0 mm | - | 44 W/m² | - |
| 1777604403 | 4.44° C | 93% | 1017.3 hPa | 0 mm | - | 30 W/m² | - |
| 1777603803 | 4.44° C | 93% | 1017.4 hPa | 0 mm | - | 19 W/m² | - |
| 1777603203 | 4.44° C | 93% | 1017.4 hPa | 0 mm | - | 21 W/m² | - |
| 1777602603 | 4.44° C | 93% | 1017.4 hPa | 0 mm | - | 14 W/m² | - |
| 1777602003 | 4.44° C | 93% | 1017.3 hPa | 0 mm | - | 9 W/m² | - |
| 1777601403 | 4.44° C | 93% | 1017.3 hPa | 0 mm | - | 5 W/m² | - |
| 1777600803 | 4.44° C | 93% | 1017.4 hPa | 0 mm | - | 0 W/m² | - |
| 1777600203 | 4.44° C | 93% | 1017.3 hPa | 0 mm | - | 0 W/m² | - |
| 1777599603 | 4.44° C | 93% | 1017.1 hPa | 0 mm | - | 0 W/m² | - |
| 1777599004 | 4.44° C | 93% | 1017.1 hPa | 0 mm | - | 0 W/m² | - |
| 1777598404 | 4.44° C | 93% | 1017.1 hPa | 0 mm | - | 0 W/m² | - |
| 1777597803 | 4.44° C | 92% | 1017.1 hPa | 0 mm | - | 0 W/m² | - |
| 1777597203 | 4.44° C | 93% | 1017 hPa | 0 mm | - | 0 W/m² | - |
| 1777596603 | 4.44° C | 93% | 1017 hPa | 0 mm | - | 0 W/m² | - |
| 1777596003 | 4.44° C | 93% | 1016.9 hPa | 0 mm | - | 0 W/m² | - |
| 1777595403 | 4.44° C | 92% | 1017 hPa | 0 mm | - | 0 W/m² | - |
* Rain latest hour (hover to see other rain measurements)
** Current wind speed in m/s (hover to see current wind gust speed)